Location: Weatherford
(35.5260°N, 98.7070°W)
Time: 13:55:43
(UTC-05:00)

OPAL - Visible Passes

Search period start: 23 August 2014 00:00
Search period end: 02 September 2014 00:00
Orbit: 744 x 796 km, 100.2° (Epoch: 23 August)

Date Brightness Start Highest point End Pass type
(mag) Time Alt. Az. Time Alt. Az. Time Alt. Az.
23 Aug 9.6 04:12:18 10° ESE 04:16:15 24° ENE 04:20:16 10° NNE visible
23 Aug 8.1 05:50:24 10° SSW 05:54:55 34° W 05:59:31 10° NW visible
24 Aug 10.5 03:40:16 10° ENE 03:41:30 11° ENE 03:42:45 10° NE visible
24 Aug 7.3 05:14:38 10° SSE 05:19:38 82° WSW 05:24:44 10° NNW visible
25 Aug 8.6 04:39:49 10° SE 04:44:32 43° ENE 04:49:20 10° N visible
25 Aug 8.8 06:20:09 10° SW 06:23:35 19° W 06:27:04 10° NW visible
26 Aug 9.9 04:06:03 10° ESE 04:09:38 20° ENE 04:13:15 10° NNE visible
26 Aug 7.8 05:43:26 10° S 05:48:10 43° W 05:52:59 10° NNW visible
27 Aug 7.5 05:07:55 10° SSE 05:12:55 82° ENE 05:18:02 10° NNW visible
28 Aug 9.0 04:33:20 10° SE 04:37:53 35° ENE 04:42:30 10° N visible
28 Aug 8.6 06:12:52 10° SSW 06:16:48 23° W 06:20:47 10° NW visible
29 Aug 10.2 03:59:56 10° E 04:03:02 17° ENE 04:06:10 10° NNE visible
29 Aug 7.6 05:36:31 10° S 05:41:25 53° WSW 05:46:25 10° NNW visible
30 Aug 7.8 05:01:15 10° SSE 05:06:14 66° ENE 05:11:19 10° N visible
31 Aug 9.3 04:26:55 10° SE 04:31:14 29° ENE 04:35:37 10° N visible
31 Aug 8.3 06:05:43 10° SSW 06:10:01 28° W 06:14:25 10° NW visible
01 Sep 10.4 03:54:00 10° E 03:56:27 14° ENE 03:58:54 10° NNE visible
01 Sep 7.4 05:29:41 10° S 05:34:42 67° WSW 05:39:48 10° NNW visible
